Time,TemperatureF,DewpointF,PressureIn,WindDirection,WindDirectionDegrees,WindSpeedMPH,WindSpeedGustMPH,Humidity,HourlyPrecipIn,Conditions,Clouds,dailyrainin,SoftwareType,DateUTC
2017-04-30 00:02:00,53.6,44.0,30.03,SSE,167,3.5,0.0,70,0.00,CLR,,0.00,WeatherDisplay:10.37,2017-04-30 04:02:00,
2017-04-30 00:07:00,53.4,44.2,30.03,NW,304,1.2,1.2,71,0.00,CLR,,0.00,WeatherDisplay:10.37,2017-04-30 04:07:00,
2017-04-30 00:12:00,53.3,43.8,30.04,WNW,295,0.0,0.0,70,0.00,CLR,,0.00,WeatherDisplay:10.37,2017-04-30 04:12:00,
2017-04-30 00:17:00,53.1,43.9,30.04,WNW,296,0.0,0.0,71,0.00,CLR,,0.00,WeatherDisplay:10.37,2017-04-30 04:17:00,
2017-04-30 00:22:00,52.8,44.0,30.05,WNW,296,0.0,0.0,72,0.00,CLR,,0.00,WeatherDisplay:10.37,2017-04-30 04:22:00,
2017-04-30 00:27:00,52.6,43.8,30.05,West,275,0.0,0.1,72,0.00,CLR,,0.00,WeatherDisplay:10.37,2017-04-30 04:27:00,
2017-04-30 00:32:00,52.3,43.9,30.05,West,275,1.2,0.0,73,0.00,CLR,,0.00,WeatherDisplay:10.37,2017-04-30 04:32:00,
2017-04-30 00:37:00,52.1,43.7,30.05,West,275,0.0,0.1,73,0.00,CLR,,0.00,WeatherDisplay:10.37,2017-04-30 04:37:00,
2017-04-30 00:42:00,52.0,43.6,30.06,West,275,0.0,0.0,73,0.00,CLR,,0.00,WeatherDisplay:10.37,2017-04-30 04:42:00,
2017-04-30 00:47:00,52.0,43.6,30.06,WSW,246,1.2,0.0,73,0.00,CLR,,0.00,WeatherDisplay:10.37,2017-04-30 04:47:00,
2017-04-30 00:52:00,52.0,43.3,30.07,SSE,153,0.0,0.1,72,0.00,CLR,,0.00,WeatherDisplay:10.37,2017-04-30 04:52:00,
2017-04-30 00:57:00,51.9,43.9,30.06,SSE,153,0.0,0.0,74,0.00,CLR,,0.00,WeatherDisplay:10.37,2017-04-30 04:57:00,
2017-04-30 01:02:00,51.7,43.7,30.07,SSE,153,0.0,0.0,74,0.00,CLR,,0.00,WeatherDisplay:10.37,2017-04-30 05:02:00,
2017-04-30 01:07:00,51.4,43.7,30.08,SSE,154,1.2,0.0,75,0.00,CLR,,0.00,WeatherDisplay:10.37,2017-04-30 05:07:00,
2017-04-30 01:12:00,51.1,43.1,30.08,SSE,154,1.2,0.0,74,0.00,CLR,,0.00,WeatherDisplay:10.37,2017-04-30 05:12:00,
2017-04-30 01:17:00,50.9,43.3,30.08,SSE,154,0.0,0.0,75,0.00,CLR,,0.00,WeatherDisplay:10.37,2017-04-30 05:17:00,
2017-04-30 01:22:00,50.5,43.6,30.09,SSE,154,0.0,0.0,77,0.00,CLR,,0.00,WeatherDisplay:10.37,2017-04-30 05:22:00,
2017-04-30 01:27:00,50.1,42.8,30.09,SSE,154,0.0,0.0,76,0.00,CLR,,0.00,WeatherDisplay:10.37,2017-04-30 05:27:00,
2017-04-30 01:32:00,49.9,43.3,30.10,SSE,154,0.0,0.0,78,0.00,CLR,,0.00,WeatherDisplay:10.37,2017-04-30 05:32:00,
2017-04-30 01:37:00,49.7,43.5,30.10,SSE,154,0.0,0.0,79,0.00,CLR,,0.00,WeatherDisplay:10.37,2017-04-30 05:37:00,
2017-04-30 01:42:00,49.5,43.3,30.10,SSE,154,0.0,0.0,79,0.00,CLR,,0.00,WeatherDisplay:10.37,2017-04-30 05:42:00,
2017-04-30 01:47:00,49.4,42.5,30.10,SSE,158,0.0,0.0,77,0.00,CLR,,0.00,WeatherDisplay:10.37,2017-04-30 05:47:00,
2017-04-30 01:52:00,49.3,42.7,30.10,SSE,158,0.0,0.0,78,0.00,CLR,,0.00,WeatherDisplay:10.37,2017-04-30 05:52:00,
2017-04-30 01:57:00,49.3,42.1,30.10,ENE,60,0.0,0.0,76,0.00,CLR,,0.00,WeatherDisplay:10.37,2017-04-30 05:57:00,
2017-04-30 02:02:00,49.2,42.6,30.10,ENE,60,0.0,0.0,78,0.00,CLR,,0.00,WeatherDisplay:10.37,2017-04-30 06:02:00,
2017-04-30 02:07:00,49.0,42.1,30.10,ENE,60,0.0,0.0,77,0.00,CLR,,0.00,WeatherDisplay:10.37,2017-04-30 06:07:00,
2017-04-30 02:12:00,48.8,42.6,30.11,ENE,60,0.0,0.0,79,0.00,CLR,,0.00,WeatherDisplay:10.37,2017-04-30 06:12:00,
2017-04-30 02:17:00,48.5,42.3,30.11,ENE,60,0.0,0.0,79,0.00,CLR,,0.00,WeatherDisplay:10.37,2017-04-30 06:17:00,
2017-04-30 02:22:00,48.2,41.3,30.11,ENE,60,0.0,0.0,77,0.00,CLR,,0.00,WeatherDisplay:10.37,2017-04-30 06:22:00,
2017-04-30 02:27:00,48.0,41.1,30.11,ENE,60,0.0,0.0,77,0.00,CLR,,0.00,WeatherDisplay:10.37,2017-04-30 06:27:00,
2017-04-30 02:32:00,47.8,41.9,30.11,ENE,60,0.0,0.0,80,0.00,CLR,,0.00,WeatherDisplay:10.37,2017-04-30 06:32:00,
2017-04-30 02:37:00,47.6,40.7,30.12,ENE,60,0.0,0.0,77,0.00,CLR,,0.00,WeatherDisplay:10.37,2017-04-30 06:37:00,
2017-04-30 02:42:00,47.8,39.6,30.12,WNW,303,2.3,2.3,73,0.00,CLR,,0.00,WeatherDisplay:10.37,2017-04-30 06:42:00,
2017-04-30 02:47:00,48.1,39.1,30.12,West,259,2.3,2.3,71,0.00,CLR,,0.00,WeatherDisplay:10.37,2017-04-30 06:47:00,
2017-04-30 02:52:00,48.4,39.8,30.12,WNW,296,0.0,0.0,72,0.00,CLR,,0.00,WeatherDisplay:10.37,2017-04-30 06:52:00,
2017-04-30 02:57:00,48.4,39.1,30.12,NW,308,2.3,2.3,70,0.00,CLR,,0.00,WeatherDisplay:10.37,2017-04-30 06:57:00,
2017-04-30 03:02:00,48.3,39.7,30.12,NW,308,0.0,0.0,72,0.00,CLR,,0.00,WeatherDisplay:10.37,2017-04-30 07:02:00,
2017-04-30 03:07:00,48.1,39.9,30.12,NW,308,0.0,0.0,73,0.00,CLR,,0.00,WeatherDisplay:10.37,2017-04-30 07:07:00,
2017-04-30 03:12:00,47.7,39.5,30.12,NW,312,2.3,2.3,73,0.00,CLR,,0.00,WeatherDisplay:10.37,2017-04-30 07:12:00,
2017-04-30 03:17:00,47.3,39.1,30.12,East,90,2.3,2.3,73,0.00,CLR,,0.00,WeatherDisplay:10.37,2017-04-30 07:17:00,
2017-04-30 03:22:00,47.1,38.2,30.13,North,355,0.0,0.0,71,0.00,CLR,,0.00,WeatherDisplay:10.37,2017-04-30 07:22:00,
2017-04-30 03:27:00,47.0,38.8,30.14,NNE,17,1.2,0.0,73,0.00,CLR,,0.00,WeatherDisplay:10.37,2017-04-30 07:27:00,
2017-04-30 03:32:00,46.7,37.8,30.13,NNE,17,1.2,0.0,71,0.00,CLR,,0.00,WeatherDisplay:10.37,2017-04-30 07:32:00,
2017-04-30 03:37:00,46.6,36.2,30.13,NNE,22,3.5,3.5,67,0.00,CLR,,0.00,WeatherDisplay:10.37,2017-04-30 07:37:00,
2017-04-30 03:42:00,46.7,35.2,30.14,SE,137,3.5,3.5,64,0.00,CLR,,0.00,WeatherDisplay:10.37,2017-04-30 07:42:00,
2017-04-30 03:43:00,46.7,35.2,30.14,SE,137,1.2,0.0,64,0.00,CLR,,0.00,WeatherDisplay:10.37,2017-04-30 07:43:00,
2017-04-30 03:48:00,46.6,35.1,30.14,NNW,345,3.5,3.5,64,0.00,CLR,,0.00,WeatherDisplay:10.37,2017-04-30 07:48:00,
2017-04-30 03:53:00,46.5,34.6,30.14,NW,304,5.0,5.0,63,0.00,CLR,,0.00,WeatherDisplay:10.37,2017-04-30 07:53:00,
2017-04-30 03:58:00,46.4,36.0,30.13,NW,313,0.0,0.0,67,0.00,CLR,,0.00,WeatherDisplay:10.37,2017-04-30 07:58:00,
2017-04-30 04:03:00,46.1,35.0,30.13,SSW,199,1.2,1.2,65,0.00,CLR,,0.00,WeatherDisplay:10.37,2017-04-30 08:03:00,
2017-04-30 04:08:00,45.8,33.9,30.12,East,82,2.3,2.3,63,0.00,CLR,,0.00,WeatherDisplay:10.37,2017-04-30 08:08:00,
2017-04-30 04:13:00,45.7,34.2,30.13,East,82,1.2,1.2,64,0.00,CLR,,0.00,WeatherDisplay:10.37,2017-04-30 08:13:00,
2017-04-30 04:18:00,45.5,34.8,30.14,East,82,1.0,0.0,66,0.00,CLR,,0.00,WeatherDisplay:10.37,2017-04-30 08:18:00,
2017-04-30 04:23:00,45.2,33.7,30.14,North,350,0.0,0.0,64,0.00,CLR,,0.00,WeatherDisplay:10.37,2017-04-30 08:23:00,
2017-04-30 04:28:00,45.1,34.4,30.14,North,350,0.0,0.0,66,0.00,CLR,,0.00,WeatherDisplay:10.37,2017-04-30 08:28:00,
2017-04-30 04:33:00,44.7,33.6,30.14,West,267,1.2,1.2,65,0.00,CLR,,0.00,WeatherDisplay:10.37,2017-04-30 08:33:00,
2017-04-30 04:38:00,44.4,33.7,30.14,West,267,1.2,1.2,66,0.00,CLR,,0.00,WeatherDisplay:10.37,2017-04-30 08:38:00,
2017-04-30 04:43:00,44.2,33.9,30.14,West,267,1.2,1.2,67,0.00,CLR,,0.00,WeatherDisplay:10.37,2017-04-30 08:43:00,
2017-04-30 04:48:00,43.9,33.6,30.14,West,267,2.3,2.3,67,0.00,CLR,,0.00,WeatherDisplay:10.37,2017-04-30 08:48:00,
2017-04-30 04:53:00,43.7,33.1,30.14,West,267,1.2,0.0,66,0.00,CLR,,0.00,WeatherDisplay:10.37,2017-04-30 08:53:00,
2017-04-30 04:58:00,43.4,33.2,30.14,NNE,30,2.3,2.3,67,0.00,CLR,,0.00,WeatherDisplay:10.37,2017-04-30 08:58:00,
2017-04-30 05:03:00,43.3,33.1,30.14,NNE,30,0.0,0.0,67,0.00,CLR,,0.00,WeatherDisplay:10.37,2017-04-30 09:03:00,
2017-04-30 05:08:00,43.1,32.1,30.14,NW,308,9.2,9.2,65,0.00,CLR,,0.00,WeatherDisplay:10.37,2017-04-30 09:08:00,
2017-04-30 05:13:00,43.2,31.4,30.15,NW,308,3.5,3.5,63,0.00,CLR,,0.00,WeatherDisplay:10.37,2017-04-30 09:13:00,
2017-04-30 05:18:00,43.1,31.7,30.15,NW,323,5.8,5.8,64,0.00,CLR,,0.00,WeatherDisplay:10.37,2017-04-30 09:18:00,
2017-04-30 05:23:00,43.1,31.7,30.15,NW,317,2.3,2.3,64,0.00,CLR,,0.00,WeatherDisplay:10.37,2017-04-30 09:23:00,
2017-04-30 05:28:00,42.9,31.6,30.15,NW,306,1.2,1.2,64,0.00,CLR,,0.00,WeatherDisplay:10.37,2017-04-30 09:28:00,
2017-04-30 05:33:00,42.8,31.5,30.15,NW,306,0.0,0.0,64,0.00,CLR,,0.00,WeatherDisplay:10.37,2017-04-30 09:33:00,
2017-04-30 05:38:00,42.6,31.3,30.16,South,178,0.0,0.0,64,0.00,CLR,,0.00,WeatherDisplay:10.37,2017-04-30 09:38:00,
2017-04-30 05:43:00,42.4,31.5,30.16,South,178,0.0,0.0,65,0.00,CLR,,0.00,WeatherDisplay:10.37,2017-04-30 09:43:00,
2017-04-30 05:48:00,42.1,31.9,30.16,East,80,1.2,1.2,67,0.00,CLR,,0.00,WeatherDisplay:10.37,2017-04-30 09:48:00,
2017-04-30 05:53:00,41.9,31.4,30.17,WNW,290,0.0,0.0,66,0.00,CLR,,0.00,WeatherDisplay:10.37,2017-04-30 09:53:00,
2017-04-30 05:58:00,41.8,30.9,30.18,West,267,3.5,3.5,65,0.00,CLR,,0.00,WeatherDisplay:10.37,2017-04-30 09:58:00,
2017-04-30 06:03:00,41.7,31.2,30.18,East,85,1.2,0.0,66,0.00,CLR,,0.00,WeatherDisplay:10.37,2017-04-30 10:03:00,
2017-04-30 06:08:00,41.6,30.3,30.18,West,281,1.2,0.0,64,0.00,CLR,,0.00,WeatherDisplay:10.37,2017-04-30 10:08:00,
2017-04-30 06:13:00,41.5,30.2,30.18,WNW,292,2.3,2.3,64,0.00,CLR,,0.00,WeatherDisplay:10.37,2017-04-30 10:13:00,
2017-04-30 06:18:00,41.5,29.8,30.19,WNW,302,0.0,0.0,63,0.00,CLR,,0.00,WeatherDisplay:10.37,2017-04-30 10:18:00,
2017-04-30 06:23:00,41.5,30.2,30.19,SW,236,0.0,0.0,64,0.00,CLR,,0.00,WeatherDisplay:10.37,2017-04-30 10:23:00,
2017-04-30 06:28:00,41.5,29.8,30.20,SE,128,0.0,0.2,63,0.00,CLR,,0.00,WeatherDisplay:10.37,2017-04-30 10:28:00,
2017-04-30 06:33:00,41.5,29.8,30.20,NNW,330,2.3,2.3,63,0.00,CLR,,0.00,WeatherDisplay:10.37,2017-04-30 10:33:00,
2017-04-30 06:38:00,41.5,29.8,30.20,West,265,3.5,3.5,63,0.00,CLR,,0.00,WeatherDisplay:10.37,2017-04-30 10:38:00,
2017-04-30 06:43:00,41.6,30.3,30.20,WNW,303,0.0,0.0,64,0.00,CLR,,0.00,WeatherDisplay:10.37,2017-04-30 10:43:00,
2017-04-30 06:48:00,41.6,29.9,30.20,WNW,303,1.2,0.0,63,0.00,CLR,,0.00,WeatherDisplay:10.37,2017-04-30 10:48:00,
2017-04-30 06:53:00,41.6,29.9,30.20,NW,322,3.5,3.5,63,0.00,CLR,,0.00,WeatherDisplay:10.37,2017-04-30 10:53:00,
2017-04-30 06:58:00,41.7,30.4,30.19,NW,322,0.0,0.0,64,0.00,CLR,,0.00,WeatherDisplay:10.37,2017-04-30 10:58:00,
2017-04-30 07:03:00,41.7,30.0,30.20,NW,320,1.2,0.0,63,0.00,CLR,,0.00,WeatherDisplay:10.37,2017-04-30 11:03:00,
2017-04-30 07:08:00,41.8,30.1,30.20,NW,325,1.2,0.0,63,0.00,CLR,,0.00,WeatherDisplay:10.37,2017-04-30 11:08:00,
2017-04-30 07:13:00,41.9,30.2,30.21,WSW,252,1.2,1.2,63,0.00,CLR,,0.00,WeatherDisplay:10.37,2017-04-30 11:13:00,
2017-04-30 07:18:00,42.0,30.7,30.22,South,183,2.3,2.3,64,0.00,CLR,,0.00,WeatherDisplay:10.37,2017-04-30 11:18:00,
2017-04-30 07:23:00,42.2,30.5,30.21,SSW,198,0.0,0.1,63,0.00,CLR,,0.00,WeatherDisplay:10.37,2017-04-30 11:23:00,
2017-04-30 07:28:00,42.4,30.7,30.21,NW,309,2.3,0.0,63,0.00,CLR,,0.00,WeatherDisplay:10.37,2017-04-30 11:28:00,
2017-04-30 07:33:00,42.5,30.8,30.21,NE,38,1.0,1.0,63,0.00,CLR,,0.00,WeatherDisplay:10.37,2017-04-30 11:33:00,
2017-04-30 07:38:00,42.8,31.1,30.21,ENE,59,1.2,1.2,63,0.00,CLR,,0.00,WeatherDisplay:10.37,2017-04-30 11:38:00,
2017-04-30 07:43:00,43.3,31.5,30.23,WNW,289,3.0,3.0,63,0.00,CLR,,0.00,WeatherDisplay:10.37,2017-04-30 11:43:00,
2017-04-30 07:48:00,43.5,31.3,30.23,WNW,298,0.0,0.0,62,0.00,CLR,,0.00,WeatherDisplay:10.37,2017-04-30 11:48:00,
2017-04-30 07:50:00,43.6,31.4,30.23,WNW,298,0.0,0.0,62,0.00,CLR,,0.00,WeatherDisplay:10.37,2017-04-30 11:50:00,
2017-04-30 07:55:00,43.8,30.8,30.24,WNW,298,1.2,1.2,60,0.00,CLR,,0.00,WeatherDisplay:10.37,2017-04-30 11:55:00,
2017-04-30 08:00:00,43.8,30.4,30.24,WNW,298,0.0,0.0,59,0.00,CLR,,0.00,WeatherDisplay:10.37,2017-04-30 12:00:00,
2017-04-30 08:05:00,43.9,31.3,30.23,WNW,298,1.0,0.0,61,0.00,CLR,,0.00,WeatherDisplay:10.37,2017-04-30 12:05:00,
2017-04-30 08:10:00,44.1,30.7,30.23,NW,305,2.3,2.3,59,0.00,CLR,,0.00,WeatherDisplay:10.37,2017-04-30 12:10:00,
2017-04-30 08:15:00,44.2,29.9,30.23,North,5,3.5,3.5,57,0.00,CLR,,0.00,WeatherDisplay:10.37,2017-04-30 12:15:00,
2017-04-30 08:20:00,44.3,30.0,30.23,NNE,22,3.5,3.5,57,0.00,CLR,,0.00,WeatherDisplay:10.37,2017-04-30 12:20:00,
2017-04-30 08:25:00,44.7,30.4,30.23,SW,231,1.2,0.0,57,0.00,CLR,,0.00,WeatherDisplay:10.37,2017-04-30 12:25:00,
2017-04-30 08:30:00,45.3,31.4,30.22,East,96,2.0,2.0,58,0.00,CLR,,0.00,WeatherDisplay:10.37,2017-04-30 12:30:00,
2017-04-30 08:35:00,45.6,31.2,30.22,East,96,0.0,0.0,57,0.00,CLR,,0.00,WeatherDisplay:10.37,2017-04-30 12:35:00,
2017-04-30 08:40:00,45.9,30.6,30.24,NE,49,1.0,0.0,55,0.00,CLR,,0.00,WeatherDisplay:10.37,2017-04-30 12:40:00,
2017-04-30 08:45:00,45.9,31.1,30.24,West,275,0.0,0.0,56,0.00,CLR,,0.00,WeatherDisplay:10.37,2017-04-30 12:45:00,
2017-04-30 08:50:00,46.3,31.4,30.24,NW,304,2.3,2.3,56,0.00,CLR,,0.00,WeatherDisplay:10.37,2017-04-30 12:50:00,
2017-04-30 08:55:00,46.9,32.0,30.24,SSW,204,3.5,3.5,56,0.00,CLR,,0.00,WeatherDisplay:10.37,2017-04-30 12:55:00,
2017-04-30 09:00:00,47.2,30.9,30.23,ESE,107,3.5,3.5,53,0.00,CLR,,0.00,WeatherDisplay:10.37,2017-04-30 13:00:00,
2017-04-30 09:02:00,47.3,31.0,30.23,NW,306,2.3,2.3,53,0.00,CLR,,0.00,WeatherDisplay:10.37,2017-04-30 13:02:00,
2017-04-30 09:07:00,47.4,31.6,30.23,East,80,2.3,0.0,54,0.00,CLR,,0.00,WeatherDisplay:10.37,2017-04-30 13:07:00,
2017-04-30 09:12:00,47.6,31.3,30.23,East,80,0.0,0.0,53,0.00,CLR,,0.00,WeatherDisplay:10.37,2017-04-30 13:12:00,
2017-04-30 09:17:00,47.8,33.3,30.22,ESE,115,1.2,1.2,57,0.00,CLR,,0.00,WeatherDisplay:10.37,2017-04-30 13:17:00,
2017-04-30 09:22:00,48.0,31.7,30.22,SE,131,1.2,1.2,53,0.00,CLR,,0.00,WeatherDisplay:10.37,2017-04-30 13:22:00,
2017-04-30 09:27:00,48.4,32.0,30.23,ESE,123,2.3,2.3,53,0.00,CLR,,0.00,WeatherDisplay:10.37,2017-04-30 13:27:00,
2017-04-30 09:32:00,48.9,31.1,30.23,SE,129,3.5,3.5,50,0.00,CLR,,0.00,WeatherDisplay:10.37,2017-04-30 13:32:00,
2017-04-30 09:33:00,48.9,31.5,30.23,NNW,333,3.5,3.5,51,0.00,CLR,,0.00,WeatherDisplay:10.37,2017-04-30 13:33:00,
2017-04-30 09:38:00,49.6,32.2,30.22,East,94,3.5,0.0,51,0.00,CLR,,0.00,WeatherDisplay:10.37,2017-04-30 13:38:00,
2017-04-30 09:43:00,49.5,30.6,30.22,SSW,199,3.5,0.0,48,0.00,CLR,,0.00,WeatherDisplay:10.37,2017-04-30 13:43:00,
2017-04-30 09:48:00,49.5,33.1,30.22,South,175,2.3,2.3,53,0.00,CLR,,0.00,WeatherDisplay:10.37,2017-04-30 13:48:00,
2017-04-30 09:53:00,49.4,30.5,30.22,North,350,0.0,0.0,48,0.00,CLR,,0.00,WeatherDisplay:10.37,2017-04-30 13:53:00,
2017-04-30 09:58:00,49.3,31.4,30.22,SE,136,2.3,2.3,50,0.00,CLR,,0.00,WeatherDisplay:10.37,2017-04-30 13:58:00,
2017-04-30 10:03:00,49.9,31.5,30.22,SE,130,1.2,1.2,49,0.00,CLR,,0.00,WeatherDisplay:10.37,2017-04-30 14:03:00,
2017-04-30 10:08:00,50.4,32.4,30.22,SE,143,1.2,0.0,50,0.00,CLR,,0.00,WeatherDisplay:10.37,2017-04-30 14:08:00,
2017-04-30 10:13:00,50.8,31.3,30.21,WNW,296,2.3,2.3,47,0.00,CLR,,0.00,WeatherDisplay:10.37,2017-04-30 14:13:00,
2017-04-30 10:18:00,50.3,30.8,30.21,NNW,335,3.5,3.7,47,0.00,CLR,,0.00,WeatherDisplay:10.37,2017-04-30 14:18:00,
2017-04-30 10:23:00,50.1,30.6,30.22,WSW,237,3.5,3.5,47,0.00,CLR,,0.00,WeatherDisplay:10.37,2017-04-30 14:23:00,
2017-04-30 10:28:00,50.5,31.5,30.22,NNW,336,1.2,1.2,48,0.00,CLR,,0.00,WeatherDisplay:10.37,2017-04-30 14:28:00,
2017-04-30 10:33:00,51.2,32.2,30.21,SE,130,2.3,2.3,48,0.00,CLR,,0.00,WeatherDisplay:10.37,2017-04-30 14:33:00,
2017-04-30 10:38:00,51.7,32.1,30.21,SSE,149,1.2,0.0,47,0.00,CLR,,0.00,WeatherDisplay:10.37,2017-04-30 14:38:00,
2017-04-30 10:43:00,52.3,31.6,30.21,SW,214,4.6,4.6,45,0.00,CLR,,0.00,WeatherDisplay:10.37,2017-04-30 14:43:00,
2017-04-30 10:48:00,52.3,33.7,30.21,East,92,1.2,1.2,49,0.00,CLR,,0.00,WeatherDisplay:10.37,2017-04-30 14:48:00,
2017-04-30 10:53:00,53.0,32.8,30.21,NNW,338,2.0,0.0,46,0.00,CLR,,0.00,WeatherDisplay:10.37,2017-04-30 14:53:00,
2017-04-30 10:58:00,53.2,32.4,30.21,NW,326,2.3,2.3,45,0.00,CLR,,0.00,WeatherDisplay:10.37,2017-04-30 14:58:00,
2017-04-30 11:03:00,53.5,32.7,30.20,WNW,300,2.3,2.3,45,0.00,CLR,,0.00,WeatherDisplay:10.37,2017-04-30 15:03:00,
2017-04-30 11:08:00,54.0,33.7,30.20,WNW,298,3.5,3.5,46,0.00,CLR,,0.00,WeatherDisplay:10.37,2017-04-30 15:08:00,
2017-04-30 11:13:00,55.0,33.5,30.21,ESE,104,2.3,2.3,44,0.00,CLR,,0.00,WeatherDisplay:10.37,2017-04-30 15:13:00,
2017-04-30 11:18:00,55.7,34.1,30.21,ESE,105,3.5,3.5,44,0.00,CLR,,0.00,WeatherDisplay:10.37,2017-04-30 15:18:00,
2017-04-30 11:23:00,55.8,33.6,30.22,NNW,347,3.5,3.5,43,0.00,CLR,,0.00,WeatherDisplay:10.37,2017-04-30 15:23:00,
2017-04-30 11:28:00,55.8,34.2,30.23,North,5,3.5,3.5,44,0.00,CLR,,0.00,WeatherDisplay:10.37,2017-04-30 15:28:00,
2017-04-30 11:33:00,55.9,33.7,30.23,WNW,294,3.5,3.5,43,0.00,CLR,,0.00,WeatherDisplay:10.37,2017-04-30 15:33:00,
2017-04-30 11:38:00,55.9,33.7,30.23,North,350,2.3,2.3,43,0.00,CLR,,0.00,WeatherDisplay:10.37,2017-04-30 15:38:00,
2017-04-30 11:43:00,55.7,33.5,30.24,NE,38,3.5,3.5,43,0.00,CLR,,0.00,WeatherDisplay:10.37,2017-04-30 15:43:00,
2017-04-30 11:48:00,55.8,35.3,30.23,ENE,59,2.0,2.0,46,0.00,CLR,,0.00,WeatherDisplay:10.37,2017-04-30 15:48:00,
2017-04-30 11:53:00,55.5,33.3,30.22,ENE,59,1.2,0.0,43,0.00,CLR,,0.00,WeatherDisplay:10.37,2017-04-30 15:53:00,
2017-04-30 11:58:00,55.3,33.2,30.22,ENE,59,1.2,1.2,43,0.00,CLR,,0.00,WeatherDisplay:10.37,2017-04-30 15:58:00,
2017-04-30 12:03:00,55.3,34.3,30.22,ENE,59,0.0,0.0,45,0.00,CLR,,0.00,WeatherDisplay:10.37,2017-04-30 16:03:00,
2017-04-30 12:08:00,55.5,34.5,30.22,ENE,59,0.0,0.0,45,0.00,CLR,,0.00,WeatherDisplay:10.37,2017-04-30 16:08:00,
2017-04-30 12:13:00,55.9,34.8,30.22,ENE,59,1.2,1.2,45,0.00,CLR,,0.00,WeatherDisplay:10.37,2017-04-30 16:13:00,
2017-04-30 12:18:00,56.1,34.5,30.24,North,355,3.5,3.5,44,0.00,CLR,,0.00,WeatherDisplay:10.37,2017-04-30 16:18:00,
2017-04-30 12:23:00,56.0,34.4,30.24,North,360,3.5,3.5,44,0.00,CLR,,0.00,WeatherDisplay:10.37,2017-04-30 16:23:00,
2017-04-30 12:24:00,56.0,34.4,30.24,North,360,1.2,1.2,44,0.00,CLR,,0.00,WeatherDisplay:10.37,2017-04-30 16:24:00,
2017-04-30 12:29:00,56.0,34.4,30.23,WNW,295,1.2,1.2,44,0.00,CLR,,0.00,WeatherDisplay:10.37,2017-04-30 16:29:00,
2017-04-30 12:34:00,56.2,36.8,30.22,WNW,295,1.2,0.0,48,0.00,CLR,,0.00,WeatherDisplay:10.37,2017-04-30 16:34:00,
2017-04-30 12:39:00,56.4,34.7,30.22,SSE,163,2.3,2.3,44,0.00,CLR,,0.00,WeatherDisplay:10.37,2017-04-30 16:39:00,
2017-04-30 12:44:00,56.3,34.1,30.22,South,188,3.5,3.5,43,0.00,CLR,,0.00,WeatherDisplay:10.37,2017-04-30 16:44:00,
2017-04-30 12:49:00,56.1,33.9,30.23,NW,314,1.2,1.2,43,0.00,CLR,,0.00,WeatherDisplay:10.37,2017-04-30 16:49:00,
2017-04-30 12:54:00,55.9,34.3,30.25,SSW,207,3.5,3.5,44,0.00,CLR,,0.00,WeatherDisplay:10.37,2017-04-30 16:54:00,
2017-04-30 12:59:00,55.5,35.6,30.24,NNE,28,1.2,1.2,47,0.00,CLR,,0.00,WeatherDisplay:10.37,2017-04-30 16:59:00,
2017-04-30 13:04:00,55.1,39.2,30.24,NNE,28,0.0,0.0,55,0.00,CLR,,0.00,WeatherDisplay:10.37,2017-04-30 17:04:00,
2017-04-30 13:09:00,53.7,44.1,30.24,NNE,28,2.3,2.3,70,0.00,CLR,,0.00,WeatherDisplay:10.37,2017-04-30 17:09:00,
2017-04-30 13:14:00,52.5,43.7,30.22,NNE,28,1.2,0.0,72,0.01,RA,,0.01,WeatherDisplay:10.37,2017-04-30 17:14:00,
2017-04-30 13:19:00,51.5,45.5,30.23,NNE,28,1.0,0.0,80,0.02,RA,,0.02,WeatherDisplay:10.37,2017-04-30 17:19:00,
2017-04-30 13:24:00,50.7,44.8,30.23,NNE,28,0.0,0.0,80,0.02,RA,,0.02,WeatherDisplay:10.37,2017-04-30 17:24:00,
2017-04-30 13:29:00,50.3,45.6,30.23,NNE,28,0.0,0.0,84,0.02,CLR,,0.02,WeatherDisplay:10.37,2017-04-30 17:29:00,
2017-04-30 13:34:00,50.3,46.3,30.22,NNE,28,0.0,0.0,86,0.02,CLR,,0.02,WeatherDisplay:10.37,2017-04-30 17:34:00,
2017-04-30 13:39:00,50.4,46.4,30.22,NNE,28,2.3,2.3,86,0.02,CLR,,0.02,WeatherDisplay:10.37,2017-04-30 17:39:00,
2017-04-30 13:44:00,50.2,43.6,30.22,NNE,28,1.2,1.2,78,0.02,CLR,,0.02,WeatherDisplay:10.37,2017-04-30 17:44:00,
2017-04-30 13:49:00,50.4,45.4,30.23,NNE,28,1.2,0.0,83,0.02,CLR,,0.02,WeatherDisplay:10.37,2017-04-30 17:49:00,
2017-04-30 13:54:00,51.0,46.3,30.22,East,96,2.3,2.3,84,0.02,CLR,,0.02,WeatherDisplay:10.37,2017-04-30 17:54:00,
2017-04-30 13:59:00,51.6,46.0,30.21,SW,225,3.5,3.5,81,0.02,CLR,,0.02,WeatherDisplay:10.37,2017-04-30 17:59:00,
2017-04-30 14:04:00,52.1,45.4,30.21,NNE,30,2.3,2.3,78,0.02,CLR,,0.02,WeatherDisplay:10.37,2017-04-30 18:04:00,
2017-04-30 14:09:00,52.6,44.2,30.21,East,84,2.3,2.3,73,0.02,CLR,,0.02,WeatherDisplay:10.37,2017-04-30 18:09:00,
2017-04-30 14:14:00,52.6,42.7,30.22,NW,319,1.2,1.2,69,0.01,CLR,,0.02,WeatherDisplay:10.37,2017-04-30 18:14:00,
2017-04-30 14:19:00,52.3,41.3,30.23,NW,319,0.0,0.0,66,0.00,CLR,,0.02,WeatherDisplay:10.37,2017-04-30 18:19:00,